owner,sensor,date,latitude,longitude,air_pressure(mBar),qcFlag 
TABS,ioos:station:wmo:42046:1,2006-10-01T00:09:00Z,27.8903,-94.0367,1016.2,11111222 
TABS,ioos:station:wmo:42046:1,2006-10-01T00:39:00Z,27.8903,-94.0367,1016.39,11111222 
TABS,ioos:station:wmo:42046:1,2006-10-01T01:09:00Z,27.8903,-94.0367,1016.58,11111222 
TABS,ioos:station:wmo:42046:1,2006-10-01T01:39:00Z,27.8903,-94.0367,1016.77,11111222 
TABS,ioos:station:wmo:42046:1,2006-10-01T02:09:00Z,27.8903,-94.0367,1016.96,11111222 
TABS,ioos:station:wmo:42046:1,2006-10-01T02:39:00Z,27.8903,-94.0367,1017.21,11111222 
TABS,ioos:station:wmo:42046:1,2006-10-01T03:09:00Z,27.8903,-94.0367,1017.47,11111222 
TABS,ioos:station:wmo:42046:1,2006-10-01T03:39:00Z,27.8903,-94.0367,1017.53,11111222 
TABS,ioos:station:wmo:42046:1,2006-10-01T04:09:00Z,27.8903,-94.0367,1017.53,11111222 
TABS,ioos:station:wmo:42046:1,2006-10-01T04:39:00Z,27.8903,-94.0367,1017.4,11111222 
TABS,ioos:station:wmo:42046:1,2006-10-01T05:09:00Z,27.8903,-94.0367,1017.21,11111222 
TABS,ioos:station:wmo:42046:1,2006-10-01T05:39:00Z,27.8903,-94.0367,1017.15,11111222 
TABS,ioos:station:wmo:42046:1,2006-10-01T06:09:00Z,27.8903,-94.0367,1017.15,11111222 
TABS,ioos:station:wmo:42046:1,2006-10-01T06:39:00Z,27.8903,-94.0367,1017.02,11111222 
TABS,ioos:station:wmo:42046:1,2006-10-01T07:09:00Z,27.8903,-94.0367,1017.15,11111222 
TABS,ioos:station:wmo:42046:1,2006-10-01T07:39:00Z,27.8903,-94.0367,1017.02,11111222 
TABS,ioos:station:wmo:42046:1,2006-10-01T08:09:00Z,27.8903,-94.0367,1016.96,11111222 
TABS,ioos:station:wmo:42046:1,2006-10-01T08:39:00Z,27.8903,-94.0367,1017.02,11111222 
TABS,ioos:station:wmo:42046:1,2006-10-01T09:09:00Z,27.8903,-94.0367,1016.96,11111222 
TABS,ioos:station:wmo:42046:1,2006-10-01T09:39:00Z,27.8903,-94.0367,1017.09,11111222 
TABS,ioos:station:wmo:42046:1,2006-10-01T10:09:00Z,27.8903,-94.0367,1017.21,11111222 
TABS,ioos:station:wmo:42046:1,2006-10-01T10:39:00Z,27.8903,-94.0367,1017.4,11111222 
TABS,ioos:station:wmo:42046:1,2006-10-01T11:09:00Z,27.8903,-94.0367,1017.59,11111222 
TABS,ioos:station:wmo:42046:1,2006-10-01T11:39:00Z,27.8903,-94.0367,1017.85,11111222 
TABS,ioos:station:wmo:42046:1,2006-10-01T12:09:00Z,27.8903,-94.0367,1018.17,11111222 
TABS,ioos:station:wmo:42046:1,2006-10-01T12:39:00Z,27.8903,-94.0367,1018.67,11111222 
TABS,ioos:station:wmo:42046:1,2006-10-01T13:09:00Z,27.8903,-94.0367,1019.12,11111222 
TABS,ioos:station:wmo:42046:1,2006-10-01T13:39:00Z,27.8903,-94.0367,1019.56,11111222 
TABS,ioos:station:wmo:42046:1,2006-10-01T14:09:00Z,27.8903,-94.0367,1020.13,11111222 
TABS,ioos:station:wmo:42046:1,2006-10-01T14:39:00Z,27.8903,-94.0367,1020.58,11111222 
TABS,ioos:station:wmo:42046:1,2006-10-01T15:09:00Z,27.8903,-94.0367,1021.02,11111222 
TABS,ioos:station:wmo:42046:1,2006-10-01T15:39:00Z,27.8903,-94.0367,1021.21,11111222 
TABS,ioos:station:wmo:42046:1,2006-10-01T16:09:00Z,27.8903,-94.0367,1021.34,11111222 
TABS,ioos:station:wmo:42046:1,2006-10-01T16:39:00Z,27.8903,-94.0367,1021.4,11111222 
TABS,ioos:station:wmo:42046:1,2006-10-01T17:09:00Z,27.8903,-94.0367,1021.28,11111222 
TABS,ioos:station:wmo:42046:1,2006-10-01T17:39:00Z,27.8903,-94.0367,1021.21,11111222 
TABS,ioos:station:wmo:42046:1,2006-10-01T18:09:00Z,27.8903,-94.0367,1020.89,11111222 
TABS,ioos:station:wmo:42046:1,2006-10-01T18:39:00Z,27.8903,-94.0367,1020.51,11111222 
TABS,ioos:station:wmo:42046:1,2006-10-01T19:09:00Z,27.8903,-94.0367,1020.2,11111222 
TABS,ioos:station:wmo:42046:1,2006-10-01T19:39:00Z,27.8903,-94.0367,1019.82,11111222 
TABS,ioos:station:wmo:42046:1,2006-10-01T20:09:00Z,27.8903,-94.0367,1019.5,11111222 
TABS,ioos:station:wmo:42046:1,2006-10-01T20:39:00Z,27.8903,-94.0367,1019.24,11111222 
TABS,ioos:station:wmo:42046:1,2006-10-01T21:09:00Z,27.8903,-94.0367,1019.12,11111222 
TABS,ioos:station:wmo:42046:1,2006-10-01T21:39:00Z,27.8903,-94.0367,1019.05,11111222 
TABS,ioos:station:wmo:42046:1,2006-10-01T22:09:00Z,27.8903,-94.0367,1019.05,11111222 
TABS,ioos:station:wmo:42046:1,2006-10-01T22:39:00Z,27.8903,-94.0367,1018.8,11111222 
TABS,ioos:station:wmo:42046:1,2006-10-01T23:09:00Z,27.8903,-94.0367,1018.74,11111222 
TABS,ioos:station:wmo:42046:1,2006-10-01T23:39:00Z,27.8903,-94.0367,1018.61,11111222 
TABS,ioos:station:wmo:42046:1,2006-10-02T00:09:00Z,27.8903,-94.0367,1018.67,11111222 
TABS,ioos:station:wmo:42046:1,2006-10-02T00:39:00Z,27.8903,-94.0367,1018.8,11111222 
TABS,ioos:station:wmo:42046:1,2006-10-02T01:09:00Z,27.8903,-94.0367,1018.86,11111222 
TABS,ioos:station:wmo:42046:1,2006-10-02T01:39:00Z,27.8903,-94.0367,1018.99,11111222 
TABS,ioos:station:wmo:42046:1,2006-10-02T02:09:00Z,27.8903,-94.0367,1019.24,11111222 
TABS,ioos:station:wmo:42046:1,2006-10-02T02:39:00Z,27.8903,-94.0367,1019.31,11111222 
TABS,ioos:station:wmo:42046:1,2006-10-02T03:09:00Z,27.8903,-94.0367,1019.5,11111222 
TABS,ioos:station:wmo:42046:1,2006-10-02T03:39:00Z,27.8903,-94.0367,1019.5,11111222 
TABS,ioos:station:wmo:42046:1,2006-10-02T04:09:00Z,27.8903,-94.0367,1019.63,11111222 
TABS,ioos:station:wmo:42046:1,2006-10-02T04:39:00Z,27.8903,-94.0367,1019.56,11111222 
TABS,ioos:station:wmo:42046:1,2006-10-02T05:09:00Z,27.8903,-94.0367,1019.63,11111222 
TABS,ioos:station:wmo:42046:1,2006-10-02T05:39:00Z,27.8903,-94.0367,1019.5,11111222 
TABS,ioos:station:wmo:42046:1,2006-10-02T06:09:00Z,27.8903,-94.0367,1019.37,11111222 
TABS,ioos:station:wmo:42046:1,2006-10-02T06:39:00Z,27.8903,-94.0367,1019.37,11111222 
TABS,ioos:station:wmo:42046:1,2006-10-02T07:09:00Z,27.8903,-94.0367,1019.31,11111222 
TABS,ioos:station:wmo:42046:1,2006-10-02T07:39:00Z,27.8903,-94.0367,1019.37,11111222 
TABS,ioos:station:wmo:42046:1,2006-10-02T08:09:00Z,27.8903,-94.0367,1019.18,11111222 
TABS,ioos:station:wmo:42046:1,2006-10-02T08:39:00Z,27.8903,-94.0367,1019.05,11111222 
TABS,ioos:station:wmo:42046:1,2006-10-02T09:09:00Z,27.8903,-94.0367,1018.99,11111222 
TABS,ioos:station:wmo:42046:1,2006-10-02T09:39:00Z,27.8903,-94.0367,1019.18,11111222 
TABS,ioos:station:wmo:42046:1,2006-10-02T10:09:00Z,27.8903,-94.0367,1019.31,11111222 
TABS,ioos:station:wmo:42046:1,2006-10-02T10:39:00Z,27.8903,-94.0367,1019.5,11111222 
TABS,ioos:station:wmo:42046:1,2006-10-02T11:09:00Z,27.8903,-94.0367,1019.75,11111222 
TABS,ioos:station:wmo:42046:1,2006-10-02T11:39:00Z,27.8903,-94.0367,1019.88,11111222 
TABS,ioos:station:wmo:42046:1,2006-10-02T12:09:00Z,27.8903,-94.0367,1019.94,11111222 
TABS,ioos:station:wmo:42046:1,2006-10-02T12:39:00Z,27.8903,-94.0367,1020.13,11111222 
TABS,ioos:station:wmo:42046:1,2006-10-02T13:09:00Z,27.8903,-94.0367,1020.51,11111222 
TABS,ioos:station:wmo:42046:1,2006-10-02T13:39:00Z,27.8903,-94.0367,1020.77,11111222 
TABS,ioos:station:wmo:42046:1,2006-10-02T14:09:00Z,27.8903,-94.0367,1020.96,11111222 
TABS,ioos:station:wmo:42046:1,2006-10-02T14:39:00Z,27.8903,-94.0367,1021.21,11111222 
TABS,ioos:station:wmo:42046:1,2006-10-02T15:09:00Z,27.8903,-94.0367,1021.53,11111222 
TABS,ioos:station:wmo:42046:1,2006-10-02T15:39:00Z,27.8903,-94.0367,1021.59,11111222 
TABS,ioos:station:wmo:42046:1,2006-10-02T16:09:00Z,27.8903,-94.0367,1021.72,11111222 
TABS,ioos:station:wmo:42046:1,2006-10-02T16:39:00Z,27.8903,-94.0367,1021.59,11111222 
TABS,ioos:station:wmo:42046:1,2006-10-02T17:09:00Z,27.8903,-94.0367,1021.53,11111222 
TABS,ioos:station:wmo:42046:1,2006-10-02T17:39:00Z,27.8903,-94.0367,1021.34,11111222 
TABS,ioos:station:wmo:42046:1,2006-10-02T18:09:00Z,27.8903,-94.0367,1020.89,11111222 
TABS,ioos:station:wmo:42046:1,2006-10-02T18:39:00Z,27.8903,-94.0367,1020.58,11111222 
TABS,ioos:station:wmo:42046:1,2006-10-02T19:09:00Z,27.8903,-94.0367,1020.13,11111222 
TABS,ioos:station:wmo:42046:1,2006-10-02T19:39:00Z,27.8903,-94.0367,1019.69,11111222 
TABS,ioos:station:wmo:42046:1,2006-10-02T20:09:00Z,27.8903,-94.0367,1019.31,11111222 
TABS,ioos:station:wmo:42046:1,2006-10-02T20:39:00Z,27.8903,-94.0367,1018.99,11111222 
TABS,ioos:station:wmo:42046:1,2006-10-02T21:09:00Z,27.8903,-94.0367,1018.8,11111222 
TABS,ioos:station:wmo:42046:1,2006-10-02T21:39:00Z,27.8903,-94.0367,1018.61,11111222 
TABS,ioos:station:wmo:42046:1,2006-10-02T22:09:00Z,27.8903,-94.0367,1018.48,11111222 
TABS,ioos:station:wmo:42046:1,2006-10-02T22:39:00Z,27.8903,-94.0367,1018.29,11111222 
TABS,ioos:station:wmo:42046:1,2006-10-02T23:09:00Z,27.8903,-94.0367,1018.48,11111222 
TABS,ioos:station:wmo:42046:1,2006-10-02T23:39:00Z,27.8903,-94.0367,1018.61,11111222 
TABS,ioos:station:wmo:42046:1,2006-10-03T00:09:00Z,27.8903,-94.0367,1018.74,11111222 
TABS,ioos:station:wmo:42046:1,2006-10-03T00:39:00Z,27.8903,-94.0367,1018.93,11111222 
TABS,ioos:station:wmo:42046:1,2006-10-03T01:09:00Z,27.8903,-94.0367,1019.24,11111222 
TABS,ioos:station:wmo:42046:1,2006-10-03T01:39:00Z,27.8903,-94.0367,1019.5,11111222 
TABS,ioos:station:wmo:42046:1,2006-10-03T02:09:00Z,27.8903,-94.0367,1019.69,11111222 
TABS,ioos:station:wmo:42046:1,2006-10-03T02:39:00Z,27.8903,-94.0367,1019.75,11111222 
TABS,ioos:station:wmo:42046:1,2006-10-03T03:09:00Z,27.8903,-94.0367,1019.75,11111222 
TABS,ioos:station:wmo:42046:1,2006-10-03T03:39:00Z,27.8903,-94.0367,1019.82,11111222 
TABS,ioos:station:wmo:42046:1,2006-10-03T04:09:00Z,27.8903,-94.0367,1019.69,11111222 
TABS,ioos:station:wmo:42046:1,2006-10-03T04:39:00Z,27.8903,-94.0367,1019.5,11111222 
TABS,ioos:station:wmo:42046:1,2006-10-03T05:09:00Z,27.8903,-94.0367,1019.37,11111222 
TABS,ioos:station:wmo:42046:1,2006-10-03T05:39:00Z,27.8903,-94.0367,1019.37,11111222 
TABS,ioos:station:wmo:42046:1,2006-10-03T06:09:00Z,27.8903,-94.0367,1019.24,11111222 
TABS,ioos:station:wmo:42046:1,2006-10-03T06:39:00Z,27.8903,-94.0367,1019.18,11111222 
TABS,ioos:station:wmo:42046:1,2006-10-03T07:09:00Z,27.8903,-94.0367,1018.93,11111222 
TABS,ioos:station:wmo:42046:1,2006-10-03T07:39:00Z,27.8903,-94.0367,1018.86,11111222 
TABS,ioos:station:wmo:42046:1,2006-10-03T08:09:00Z,27.8903,-94.0367,1018.8,11111222 
TABS,ioos:station:wmo:42046:1,2006-10-03T08:39:00Z,27.8903,-94.0367,1018.74,11111222 
TABS,ioos:station:wmo:42046:1,2006-10-03T09:09:00Z,27.8903,-94.0367,1018.67,11111222 
TABS,ioos:station:wmo:42046:1,2006-10-03T09:39:00Z,27.8903,-94.0367,1018.55,11111222 
TABS,ioos:station:wmo:42046:1,2006-10-03T10:09:00Z,27.8903,-94.0367,1018.67,11111222 
TABS,ioos:station:wmo:42046:1,2006-10-03T10:39:00Z,27.8903,-94.0367,1018.8,11111222 
TABS,ioos:station:wmo:42046:1,2006-10-03T11:09:00Z,27.8903,-94.0367,1019.12,11111222 
TABS,ioos:station:wmo:42046:1,2006-10-03T11:39:00Z,27.8903,-94.0367,1018.99,11111222 
TABS,ioos:station:wmo:42046:1,2006-10-03T12:09:00Z,27.8903,-94.0367,1019.12,11111222 
TABS,ioos:station:wmo:42046:1,2006-10-03T12:39:00Z,27.8903,-94.0367,1019.05,11111222 
TABS,ioos:station:wmo:42046:1,2006-10-03T13:09:00Z,27.8903,-94.0367,1019.18,11111222 
TABS,ioos:station:wmo:42046:1,2006-10-03T13:39:00Z,27.8903,-94.0367,1019.69,11111222 
TABS,ioos:station:wmo:42046:1,2006-10-03T14:09:00Z,27.8903,-94.0367,1019.88,11111222 
TABS,ioos:station:wmo:42046:1,2006-10-03T14:39:00Z,27.8903,-94.0367,1020.26,11111222 
TABS,ioos:station:wmo:42046:1,2006-10-03T15:09:00Z,27.8903,-94.0367,1020.45,11111222 
TABS,ioos:station:wmo:42046:1,2006-10-03T15:39:00Z,27.8903,-94.0367,1020.45,11111222 
TABS,ioos:station:wmo:42046:1,2006-10-03T16:09:00Z,27.8903,-94.0367,1020.39,11111222 
TABS,ioos:station:wmo:42046:1,2006-10-03T16:39:00Z,27.8903,-94.0367,1020.45,11111222 
TABS,ioos:station:wmo:42046:1,2006-10-03T17:09:00Z,27.8903,-94.0367,1020.26,11111222 
TABS,ioos:station:wmo:42046:1,2006-10-03T17:39:00Z,27.8903,-94.0367,1020.13,11111222 
TABS,ioos:station:wmo:42046:1,2006-10-03T18:09:00Z,27.8903,-94.0367,1019.88,11111222 
TABS,ioos:station:wmo:42046:1,2006-10-03T18:39:00Z,27.8903,-94.0367,1019.69,11111222 
TABS,ioos:station:wmo:42046:1,2006-10-03T19:09:00Z,27.8903,-94.0367,1019.37,11111222 
TABS,ioos:station:wmo:42046:1,2006-10-03T19:39:00Z,27.8903,-94.0367,1019.05,11111222 
TABS,ioos:station:wmo:42046:1,2006-10-03T20:09:00Z,27.8903,-94.0367,1018.86,11111222 
TABS,ioos:station:wmo:42046:1,2006-10-03T20:39:00Z,27.8903,-94.0367,1018.61,11111222 
TABS,ioos:station:wmo:42046:1,2006-10-03T21:09:00Z,27.8903,-94.0367,1018.42,11111222 
TABS,ioos:station:wmo:42046:1,2006-10-03T21:39:00Z,27.8903,-94.0367,1018.36,11111222 
TABS,ioos:station:wmo:42046:1,2006-10-03T22:09:00Z,27.8903,-94.0367,1018.29,11111222 
TABS,ioos:station:wmo:42046:1,2006-10-03T22:39:00Z,27.8903,-94.0367,1018.17,11111222 
TABS,ioos:station:wmo:42046:1,2006-10-03T23:09:00Z,27.8903,-94.0367,1018.36,11111222 
TABS,ioos:station:wmo:42046:1,2006-10-03T23:39:00Z,27.8903,-94.0367,1018.29,11111222 
TABS,ioos:station:wmo:42046:1,2006-10-04T00:09:00Z,27.8903,-94.0367,1018.17,11111222 
TABS,ioos:station:wmo:42046:1,2006-10-04T00:39:00Z,27.8903,-94.0367,1018.17,11111222 
TABS,ioos:station:wmo:42046:1,2006-10-04T01:09:00Z,27.8903,-94.0367,1018.29,11111222 
TABS,ioos:station:wmo:42046:1,2006-10-04T01:39:00Z,27.8903,-94.0367,1018.55,11111222 
TABS,ioos:station:wmo:42046:1,2006-10-04T02:09:00Z,27.8903,-94.0367,1018.86,11111222 
TABS,ioos:station:wmo:42046:1,2006-10-04T02:39:00Z,27.8903,-94.0367,1019.12,11111222 
TABS,ioos:station:wmo:42046:1,2006-10-04T03:09:00Z,27.8903,-94.0367,1019.18,11111222 
TABS,ioos:station:wmo:42046:1,2006-10-04T03:39:00Z,27.8903,-94.0367,1019.24,11111222 
TABS,ioos:station:wmo:42046:1,2006-10-04T04:09:00Z,27.8903,-94.0367,1019.18,11111222 
TABS,ioos:station:wmo:42046:1,2006-10-04T04:39:00Z,27.8903,-94.0367,1019.18,11111222 
TABS,ioos:station:wmo:42046:1,2006-10-04T05:09:00Z,27.8903,-94.0367,1019.12,11111222 
TABS,ioos:station:wmo:42046:1,2006-10-04T05:39:00Z,27.8903,-94.0367,1018.8,11111222 
TABS,ioos:station:wmo:42046:1,2006-10-04T06:09:00Z,27.8903,-94.0367,1018.55,11111222 
TABS,ioos:station:wmo:42046:1,2006-10-04T06:39:00Z,27.8903,-94.0367,1018.23,11111222 
TABS,ioos:station:wmo:42046:1,2006-10-04T07:09:00Z,27.8903,-94.0367,1018.1,11111222 
TABS,ioos:station:wmo:42046:1,2006-10-04T07:39:00Z,27.8903,-94.0367,1017.91,11111222 
TABS,ioos:station:wmo:42046:1,2006-10-04T08:09:00Z,27.8903,-94.0367,1017.53,11111222 
TABS,ioos:station:wmo:42046:1,2006-10-04T08:39:00Z,27.8903,-94.0367,1017.21,11111222 
TABS,ioos:station:wmo:42046:1,2006-10-04T09:09:00Z,27.8903,-94.0367,1017.09,11111222 
TABS,ioos:station:wmo:42046:1,2006-10-04T09:39:00Z,27.8903,-94.0367,1017.15,11111222 
TABS,ioos:station:wmo:42046:1,2006-10-04T10:09:00Z,27.8903,-94.0367,1017.28,11111222 
TABS,ioos:station:wmo:42046:1,2006-10-04T10:39:00Z,27.8903,-94.0367,1017.34,11111222 
TABS,ioos:station:wmo:42046:1,2006-10-04T11:09:00Z,27.8903,-94.0367,1017.53,11111222 
TABS,ioos:station:wmo:42046:1,2006-10-04T11:39:00Z,27.8903,-94.0367,1017.78,11111222 
TABS,ioos:station:wmo:42046:1,2006-10-04T12:09:00Z,27.8903,-94.0367,1017.98,11111222 
TABS,ioos:station:wmo:42046:1,2006-10-04T12:39:00Z,27.8903,-94.0367,1018.23,11111222 
TABS,ioos:station:wmo:42046:1,2006-10-04T13:09:00Z,27.8903,-94.0367,1018.48,11111222 
TABS,ioos:station:wmo:42046:1,2006-10-04T13:39:00Z,27.8903,-94.0367,1018.74,11111222 
TABS,ioos:station:wmo:42046:1,2006-10-04T14:09:00Z,27.8903,-94.0367,1018.8,11111222 
TABS,ioos:station:wmo:42046:1,2006-10-04T14:39:00Z,27.8903,-94.0367,1019.24,11111222 
TABS,ioos:station:wmo:42046:1,2006-10-04T15:09:00Z,27.8903,-94.0367,1019.63,11111222 
TABS,ioos:station:wmo:42046:1,2006-10-04T15:39:00Z,27.8903,-94.0367,1019.94,11111222 
TABS,ioos:station:wmo:42046:1,2006-10-04T16:09:00Z,27.8903,-94.0367,1019.88,11111222 
TABS,ioos:station:wmo:42046:1,2006-10-04T16:39:00Z,27.8903,-94.0367,1019.94,11111222 
TABS,ioos:station:wmo:42046:1,2006-10-04T17:09:00Z,27.8903,-94.0367,1019.75,11111222 
TABS,ioos:station:wmo:42046:1,2006-10-04T17:39:00Z,27.8903,-94.0367,1019.63,11111222 
TABS,ioos:station:wmo:42046:1,2006-10-04T18:09:00Z,27.8903,-94.0367,1019.63,11111222 
TABS,ioos:station:wmo:42046:1,2006-10-04T18:39:00Z,27.8903,-94.0367,1019.43,11111222 
TABS,ioos:station:wmo:42046:1,2006-10-04T19:09:00Z,27.8903,-94.0367,1019.37,11111222 
TABS,ioos:station:wmo:42046:1,2006-10-04T19:39:00Z,27.8903,-94.0367,1019.05,11111222 
TABS,ioos:station:wmo:42046:1,2006-10-04T20:09:00Z,27.8903,-94.0367,1018.8,11111222 
TABS,ioos:station:wmo:42046:1,2006-10-04T20:39:00Z,27.8903,-94.0367,1018.61,11111222 
TABS,ioos:station:wmo:42046:1,2006-10-04T21:09:00Z,27.8903,-94.0367,1018.48,11111222 
TABS,ioos:station:wmo:42046:1,2006-10-04T21:39:00Z,27.8903,-94.0367,1018.36,11111222 
TABS,ioos:station:wmo:42046:1,2006-10-04T22:09:00Z,27.8903,-94.0367,1018.23,11111222 
TABS,ioos:station:wmo:42046:1,2006-10-04T22:39:00Z,27.8903,-94.0367,1018.23,11111222 
TABS,ioos:station:wmo:42046:1,2006-10-04T23:09:00Z,27.8903,-94.0367,1018.42,11111222 
TABS,ioos:station:wmo:42046:1,2006-10-04T23:39:00Z,27.8903,-94.0367,1018.55,11111222 
TABS,ioos:station:wmo:42046:1,2006-10-05T00:09:00Z,27.8903,-94.0367,1018.8,11111222 
TABS,ioos:station:wmo:42046:1,2006-10-05T00:39:00Z,27.8903,-94.0367,1019.05,11111222 
TABS,ioos:station:wmo:42046:1,2006-10-05T01:09:00Z,27.8903,-94.0367,1019.24,11111222 
TABS,ioos:station:wmo:42046:1,2006-10-05T01:39:00Z,27.8903,-94.0367,1019.24,11111222 
TABS,ioos:station:wmo:42046:1,2006-10-05T02:09:00Z,27.8903,-94.0367,1019.43,11111222 
TABS,ioos:station:wmo:42046:1,2006-10-05T02:39:00Z,27.8903,-94.0367,1019.56,11111222 
TABS,ioos:station:wmo:42046:1,2006-10-05T03:09:00Z,27.8903,-94.0367,1019.5,11111222 
TABS,ioos:station:wmo:42046:1,2006-10-05T03:39:00Z,27.8903,-94.0367,1019.5,11111222 
TABS,ioos:station:wmo:42046:1,2006-10-05T04:09:00Z,27.8903,-94.0367,1019.43,11111222 
TABS,ioos:station:wmo:42046:1,2006-10-05T04:39:00Z,27.8903,-94.0367,1019.05,11111222 
TABS,ioos:station:wmo:42046:1,2006-10-05T05:09:00Z,27.8903,-94.0367,1018.8,11111222 
TABS,ioos:station:wmo:42046:1,2006-10-05T05:39:00Z,27.8903,-94.0367,1018.61,11111222 
TABS,ioos:station:wmo:42046:1,2006-10-05T06:09:00Z,27.8903,-94.0367,1018.55,11111222 
TABS,ioos:station:wmo:42046:1,2006-10-05T06:39:00Z,27.8903,-94.0367,1018.36,11111222 
TABS,ioos:station:wmo:42046:1,2006-10-05T07:09:00Z,27.8903,-94.0367,1018.23,11111222 
TABS,ioos:station:wmo:42046:1,2006-10-05T07:39:00Z,27.8903,-94.0367,1018.1,11111222 
TABS,ioos:station:wmo:42046:1,2006-10-05T08:09:00Z,27.8903,-94.0367,1017.98,11111222 
TABS,ioos:station:wmo:42046:1,2006-10-05T08:39:00Z,27.8903,-94.0367,1017.78,11111222 
TABS,ioos:station:wmo:42046:1,2006-10-05T09:09:00Z,27.8903,-94.0367,1017.59,11111222 
TABS,ioos:station:wmo:42046:1,2006-10-05T09:39:00Z,27.8903,-94.0367,1017.53,11111222 
TABS,ioos:station:wmo:42046:1,2006-10-05T10:09:00Z,27.8903,-94.0367,1017.47,11111222 
TABS,ioos:station:wmo:42046:1,2006-10-05T10:39:00Z,27.8903,-94.0367,1017.85,11111222 
TABS,ioos:station:wmo:42046:1,2006-10-05T11:09:00Z,27.8903,-94.0367,1018.29,11111222 
TABS,ioos:station:wmo:42046:1,2006-10-05T11:39:00Z,27.8903,-94.0367,1018.07,11111222 
TABS,ioos:station:wmo:42046:1,2006-10-05T12:09:00Z,27.8903,-94.0367,1018.18,11111222 
TABS,ioos:station:wmo:42046:1,2006-10-05T12:39:00Z,27.8903,-94.0367,-999.99,22222222 
TABS,ioos:station:wmo:42046:1,2006-10-05T13:09:00Z,27.8903,-94.0367,-999.99,22222222 
TABS,ioos:station:wmo:42046:1,2006-10-05T13:39:00Z,27.8903,-94.0367,-999.99,22222222 
TABS,ioos:station:wmo:42046:1,2006-10-05T14:09:00Z,27.8903,-94.0367,-999.99,22222222 
TABS,ioos:station:wmo:42046:1,2006-10-05T14:39:00Z,27.8903,-94.0367,-999.99,22222222 
TABS,ioos:station:wmo:42046:1,2006-10-05T15:09:00Z,27.8903,-94.0367,-999.99,22222222 
TABS,ioos:station:wmo:42046:1,2006-10-05T15:39:00Z,27.8903,-94.0367,-999.99,22222222 
TABS,ioos:station:wmo:42046:1,2006-10-05T16:09:00Z,27.8903,-94.0367,-999.99,22222222 
TABS,ioos:station:wmo:42046:1,2006-10-05T16:39:00Z,27.8903,-94.0367,-999.99,22222222 
TABS,ioos:station:wmo:42046:1,2006-10-05T17:09:00Z,27.8903,-94.0367,-999.99,22222222 
TABS,ioos:station:wmo:42046:1,2006-10-05T17:39:00Z,27.8903,-94.0367,-999.99,22222222 
TABS,ioos:station:wmo:42046:1,2006-10-05T18:09:00Z,27.8903,-94.0367,-999.99,22222222 
TABS,ioos:station:wmo:42046:1,2006-10-05T18:39:00Z,27.8903,-94.0367,-999.99,22222222 
TABS,ioos:station:wmo:42046:1,2006-10-05T19:09:00Z,27.8903,-94.0367,-999.99,22222222 
TABS,ioos:station:wmo:42046:1,2006-10-05T19:39:00Z,27.8903,-94.0367,-999.99,22222222 
TABS,ioos:station:wmo:42046:1,2006-10-05T20:09:00Z,27.8903,-94.0367,-999.99,22222222 
TABS,ioos:station:wmo:42046:1,2006-10-05T20:39:00Z,27.8903,-94.0367,-999.99,22222222 
TABS,ioos:station:wmo:42046:1,2006-10-05T21:09:00Z,27.8903,-94.0367,-999.99,22222222 
TABS,ioos:station:wmo:42046:1,2006-10-05T21:39:00Z,27.8903,-94.0367,-999.99,22222222 
TABS,ioos:station:wmo:42046:1,2006-10-05T22:09:00Z,27.8903,-94.0367,-999.99,22222222 
TABS,ioos:station:wmo:42046:1,2006-10-05T22:39:00Z,27.8903,-94.0367,-999.99,22222222 
TABS,ioos:station:wmo:42046:1,2006-10-05T23:09:00Z,27.8903,-94.0367,-999.99,22222222 
TABS,ioos:station:wmo:42046:1,2006-10-05T23:39:00Z,27.8903,-94.0367,-999.99,22222222 
TABS,ioos:station:wmo:42046:1,2006-10-06T00:09:00Z,27.8903,-94.0367,-999.99,22222222 
TABS,ioos:station:wmo:42046:1,2006-10-06T00:39:00Z,27.8903,-94.0367,-999.99,22222222 
TABS,ioos:station:wmo:42046:1,2006-10-06T01:09:00Z,27.8903,-94.0367,-999.99,22222222 
TABS,ioos:station:wmo:42046:1,2006-10-06T01:39:00Z,27.8903,-94.0367,-999.99,22222222 
TABS,ioos:station:wmo:42046:1,2006-10-06T02:09:00Z,27.8903,-94.0367,-999.99,22222222 
TABS,ioos:station:wmo:42046:1,2006-10-06T02:39:00Z,27.8903,-94.0367,-999.99,22222222 
TABS,ioos:station:wmo:42046:1,2006-10-06T03:09:00Z,27.8903,-94.0367,-999.99,22222222 
TABS,ioos:station:wmo:42046:1,2006-10-06T03:39:00Z,27.8903,-94.0367,-999.99,22222222 
TABS,ioos:station:wmo:42046:1,2006-10-06T04:09:00Z,27.8903,-94.0367,-999.99,22222222 
TABS,ioos:station:wmo:42046:1,2006-10-06T04:39:00Z,27.8903,-94.0367,1009.98,11111222 
TABS,ioos:station:wmo:42046:1,2006-10-06T05:09:00Z,27.8903,-94.0367,1009.79,11111222 
TABS,ioos:station:wmo:42046:1,2006-10-06T05:39:00Z,27.8903,-94.0367,1009.47,11111222 
TABS,ioos:station:wmo:42046:1,2006-10-06T06:09:00Z,27.8903,-94.0367,1009.28,11111222 
TABS,ioos:station:wmo:42046:1,2006-10-06T06:39:00Z,27.8903,-94.0367,1009.02,11111222 
TABS,ioos:station:wmo:42046:1,2006-10-06T07:09:00Z,27.8903,-94.0367,1008.64,11111222 
TABS,ioos:station:wmo:42046:1,2006-10-06T07:39:00Z,27.8903,-94.0367,1008.77,11111222 
TABS,ioos:station:wmo:42046:1,2006-10-06T08:09:00Z,27.8903,-94.0367,1008.9,11111222 
TABS,ioos:station:wmo:42046:1,2006-10-06T08:39:00Z,27.8903,-94.0367,1008.14,11111222 
TABS,ioos:station:wmo:42046:1,2006-10-06T09:09:00Z,27.8903,-94.0367,1006.36,11111222 
TABS,ioos:station:wmo:42046:1,2006-10-06T09:39:00Z,27.8903,-94.0367,1007.25,11111222 
TABS,ioos:station:wmo:42046:1,2006-10-06T10:09:00Z,27.8903,-94.0367,1006.8,11111222 
TABS,ioos:station:wmo:42046:1,2006-10-06T10:39:00Z,27.8903,-94.0367,1007.03,11111222 
TABS,ioos:station:wmo:42046:1,2006-10-06T11:09:00Z,27.8903,-94.0367,1006.92,11111222 
TABS,ioos:station:wmo:42046:1,2006-10-06T11:39:00Z,27.8903,-94.0367,1006.97,11111222 
TABS,ioos:station:wmo:42046:1,2006-10-06T12:09:00Z,27.8903,-94.0367,1006.94,11111222 
TABS,ioos:station:wmo:42046:1,2006-10-06T12:39:00Z,27.8903,-94.0367,1006.96,11111222 
TABS,ioos:station:wmo:42046:1,2006-10-06T13:09:00Z,27.8903,-94.0367,1006.95,11111222 
TABS,ioos:station:wmo:42046:1,2006-10-06T13:39:00Z,27.8903,-94.0367,1006.95,11111222 
TABS,ioos:station:wmo:42046:1,2006-10-06T14:09:00Z,27.8903,-94.0367,1006.95,11111222 
TABS,ioos:station:wmo:42046:1,2006-10-06T14:39:00Z,27.8903,-94.0367,1006.95,11111222 
TABS,ioos:station:wmo:42046:1,2006-10-06T15:09:00Z,27.8903,-94.0367,1006.95,11111222 
TABS,ioos:station:wmo:42046:1,2006-10-06T15:39:00Z,27.8903,-94.0367,1006.95,11111222 
TABS,ioos:station:wmo:42046:1,2006-10-06T16:09:00Z,27.8903,-94.0367,1006.95,11111222 
TABS,ioos:station:wmo:42046:1,2006-10-06T16:39:00Z,27.8903,-94.0367,1006.95,11111222 
TABS,ioos:station:wmo:42046:1,2006-10-06T17:09:00Z,27.8903,-94.0367,1006.95,11111222 
TABS,ioos:station:wmo:42046:1,2006-10-06T17:39:00Z,27.8903,-94.0367,1006.95,11111222 
TABS,ioos:station:wmo:42046:1,2006-10-06T18:09:00Z,27.8903,-94.0367,1006.95,11111222 
TABS,ioos:station:wmo:42046:1,2006-10-06T18:39:00Z,27.8903,-94.0367,1006.95,11111222 